Showing default

GLOBALSTAR M087, 52888

Orbit data source: Space-Track

GLOBALSTAR M087, 52888 is a payload satellite owned by Globalstar (US) in LEO that was launched on Sun, 19 Jun 2022 UTC via an FALCON 9 launch vehicle from the Air Force Eastern Test Range (AFETR). Payload-class satellites include a variety of spacecraft equipped with specific instruments for various scientific and technological missions. These include communications satellites like Starlink; space stations such as the ISS; scientific satellites like the Hubble; Earth observation satellites from companies like Planet Labs, Umbra, and HawkEye 360; GPS; miniature CubeSats for education and research; and military/defense satellites.

Loading next visibility...
Identifier
52888, 2022-064A
Orbit
LEO
Country
Flag of USUS
Related business
Manufacturer
Thales Alenia
Mission
Operational Commercial Communications
Bus & Motor
PRISMA?, LS-400 AOCS?
Mass
715 kg wet, ~500 kg dry
Launch date (UTC)
2022-06-19 (4 years ago)
Launch vehicle
FALCON 9
Launch site
Air Force Eastern Test Range (AFETR)
Object type
Payload
Rocket body
Debris
Shape & HBR
Box + 2 Pan, 6.0 m
Radar Cross Section
28.800 m², Large (>1 m²)

Expand to show TLE details & history
Last TLE update: 14 hours ago

TLE from 14 hours ago
0 GLOBALSTAR M087
1 52888U 22064A   26037.19217497 -.00000085  00000-0  10564-3 0  9996
2 52888  51.9998 101.2622 0000685  97.8174 262.2771 12.62266621174590
Epoch: 2026-02-06T04:36Z
TLE epoch observation values (Epoch: 2026-02-06T04:36:43.917Z)
Latitude
0.00003°
Longitude
-104.25435°
Altitude
1,414.356 km
Speed
7.154 km/s
True Right ascension
06h 45m 02s
True Declination
0° 00' 00"
Sunlit
Object was in full shadow at epoch
Visualization orbit readout
Latitude
Unknown
Longitude
Unknown
Altitude
Unknown
Speed
Unknown
Apparent Right ascension
Unknown
Apparent Declination
Unknown
Sunlit
N/A
Visualization observer readout
Local Sidereal Time
20:21:50
Azimuth
Unknown
Elevation
Unknown
Doppler factor
Unknown
Orbital elements
Apogee altitude
1,414.529 km
Perigee altitude
1,413.461 km
Semi-major axis
7,792.132 km
Eccentricity
0.00007
Inclination
51.9998°
RAAN
101.2622°
Arg. of periapsis
97.8174°
True anomaly
262.26932°
Mean anomaly
262.2771°
Eccentric anomaly
262.27321°
Mean motion
3.15543 °/min
Orbital period
114.09 mins
BSTAR
0.00010564
Loading maneuver chart data...
Computing Atmospheric mass density...
Loading historical data...
Loading historical data...
Loading historical data...
Loading historical data...
Loading historical data...
Loading historical data...
Loading historical data...
Other satellites on launch #64 in the year 2022 (2022-06-19 UTC)

Documentation

Showing up to 5 results
|